Station Historical Data
Daily Summary for August 10, 2017 Units:  English    Metric   Both
Next Day »
Daily Weekly Monthly Yearly Custom
  High: Low: Average:
Temperature: 87.3 °F 68.0 °F 75.8 °F
Dew Point: 59.0 °F 51.3 °F 54.3 °F
Humidity: 62% 32% 48%
Wind Speed: 12.0mph 0.0mph 2.2mph
Wind Gust: 15.0mph - -
Wind- - SSE
Pressure: 29.91 in 29.87 in -
Precipitation: 0.00 in    
Historical Graphs
 
 
Tabular Data for August 10, 2017
Time Temperature Dew Point Pressure Wind Wind Speed Wind Gust Humidity Rainfall Rate (Hourly) solar Conditions
00:00 69.6 °F 54.2 °F 29.89 in Calm   6.0 mph 58% 0.00 in 0.00 W/m2
00:05 69.5 °F 54.1 °F 29.89 in Calm   7.0 mph 58% 0.00 in 0.00 W/m2
00:10 69.6 °F 54.2 °F 29.89 in Calm   6.0 mph 58% 0.00 in 0.00 W/m2
00:11 69.6 °F 53.7 °F 29.89 in ESE 5.0 mph 5.0 mph 57% 0.00 in 0.00 W/m2
00:16 69.6 °F 53.7 °F 29.89 in ESE 5.0 mph 9.0 mph 57% 0.00 in 0.00 W/m2
00:21 69.5 °F 53.6 °F 29.89 in Calm   4.0 mph 57% 0.00 in 0.00 W/m2
00:26 69.5 °F 53.6 °F 29.89 in ESE 5.0 mph 9.0 mph 57% 0.00 in 0.00 W/m2
00:31 69.5 °F 53.6 °F 29.89 in East 4.0 mph 12.0 mph 57% 0.00 in 0.00 W/m2
00:37 69.5 °F 53.1 °F 29.89 in ESE 5.0 mph 7.0 mph 56% 0.00 in 0.00 W/m2
00:42 69.6 °F 53.2 °F 29.89 in East 8.0 mph 9.0 mph 56% 0.00 in 0.00 W/m2
00:47 69.6 °F 53.2 °F 29.89 in ESE 4.0 mph 11.0 mph 56% 0.00 in 0.00 W/m2
00:52 69.6 °F 52.7 °F 29.89 in East 6.0 mph 12.0 mph 55% 0.00 in 0.00 W/m2
00:57 69.7 °F 52.8 °F 29.88 in Calm   12.0 mph 55% 0.00 in 0.00 W/m2
01:02 69.7 °F 52.8 °F 29.88 in East 7.0 mph 12.0 mph 55% 0.00 in 0.00 W/m2
01:07 69.8 °F 52.4 °F 29.89 in East 11.0 mph 13.0 mph 54% 0.00 in 0.00 W/m2
01:12 69.9 °F 52.5 °F 29.88 in East 8.0 mph 13.0 mph 54% 0.00 in 0.00 W/m2
01:17 69.9 °F 52.5 °F 29.89 in East 7.0 mph 12.0 mph 54% 0.00 in 0.00 W/m2
01:22 70.0 °F 52.6 °F 29.88 in ESE 6.0 mph 15.0 mph 54% 0.00 in 0.00 W/m2
01:27 70.1 °F 52.7 °F 29.88 in ESE 5.0 mph 11.0 mph 54% 0.00 in 0.00 W/m2
01:32 70.1 °F 52.7 °F 29.88 in East 2.0 mph 11.0 mph 54% 0.00 in 0.00 W/m2
01:37 70.2 °F 52.8 °F 29.88 in East 4.0 mph 14.0 mph 54% 0.00 in 0.00 W/m2
01:42 70.2 °F 52.8 °F 29.88 in ESE 4.0 mph 13.0 mph 54% 0.00 in 0.00 W/m2
01:47 70.3 °F 52.9 °F 29.88 in Calm   12.0 mph 54% 0.00 in 0.00 W/m2
01:52 70.2 °F 52.8 °F 29.88 in East 12.0 mph 12.0 mph 54% 0.00 in 0.00 W/m2
01:57 70.3 °F 52.4 °F 29.88 in ESE 11.0 mph 11.0 mph 53% 0.00 in 0.00 W/m2
02:02 70.2 °F 52.3 °F 29.88 in ESE 1.0 mph 11.0 mph 53% 0.00 in 0.00 W/m2
02:07 70.2 °F 52.3 °F 29.88 in ESE 5.0 mph 13.0 mph 53% 0.00 in 0.00 W/m2
02:12 70.2 °F 52.3 °F 29.88 in ESE 6.0 mph 9.0 mph 53% 0.00 in 0.00 W/m2
02:17 70.2 °F 52.3 °F 29.88 in ESE 5.0 mph 9.0 mph 53% 0.00 in 0.00 W/m2
02:22 70.2 °F 52.3 °F 29.88 in ESE 7.0 mph 8.0 mph 53% 0.00 in 0.00 W/m2
02:27 70.2 °F 52.3 °F 29.88 in ESE 2.0 mph 12.0 mph 53% 0.00 in 0.00 W/m2
02:32 70.1 °F 52.2 °F 29.88 in East 5.0 mph 13.0 mph 53% 0.00 in 0.00 W/m2
02:37 70.1 °F 52.2 °F 29.88 in East 5.0 mph 9.0 mph 53% 0.00 in 0.00 W/m2
02:42 70.1 °F 52.2 °F 29.88 in East 6.0 mph 12.0 mph 53% 0.00 in 0.00 W/m2
02:47 70.0 °F 52.1 °F 29.88 in ESE 6.0 mph 12.0 mph 53% 0.00 in 0.00 W/m2
02:52 70.0 °F 52.1 °F 29.87 in ESE 8.0 mph 9.0 mph 53% 0.00 in 0.00 W/m2
02:57 69.9 °F 52.0 °F 29.87 in Calm   9.0 mph 53% 0.00 in 0.00 W/m2
03:02 69.9 °F 52.0 °F 29.87 in ESE 1.0 mph 12.0 mph 53% 0.00 in 0.00 W/m2
03:07 69.8 °F 51.9 °F 29.87 in Calm   11.0 mph 53% 0.00 in 0.00 W/m2
03:12 69.7 °F 51.8 °F 29.88 in East 6.0 mph 9.0 mph 53% 0.00 in 0.00 W/m2
03:17 69.7 °F 51.8 °F 29.87 in East 11.0 mph 11.0 mph 53% 0.00 in 0.00 W/m2
03:22 69.6 °F 51.7 °F 29.87 in Calm   12.0 mph 53% 0.00 in 0.00 W/m2
03:27 69.6 °F 52.2 °F 29.87 in ESE 5.0 mph 9.0 mph 54% 0.00 in 0.00 W/m2
03:32 69.5 °F 52.2 °F 29.87 in East 5.0 mph 9.0 mph 54% 0.00 in 0.00 W/m2
03:37 69.5 °F 52.2 °F 29.87 in Calm   12.0 mph 54% 0.00 in 0.00 W/m2
03:42 69.5 °F 52.2 °F 29.87 in ESE 6.0 mph 11.0 mph 54% 0.00 in 0.00 W/m2
03:47 69.4 °F 52.0 °F 29.87 in ESE 7.0 mph 11.0 mph 54% 0.00 in 0.00 W/m2
03:52 69.4 °F 52.0 °F 29.87 in Calm   11.0 mph 54% 0.00 in 0.00 W/m2
03:57 69.4 °F 52.0 °F 29.87 in ESE 1.0 mph 11.0 mph 54% 0.00 in 0.00 W/m2
04:02 69.3 °F 52.0 °F 29.87 in ESE 7.0 mph 7.0 mph 54% 0.00 in 0.00 W/m2
04:07 69.2 °F 51.9 °F 29.87 in ESE 1.0 mph 12.0 mph 54% 0.00 in 0.00 W/m2
04:12 69.2 °F 51.9 °F 29.87 in ESE 2.0 mph 9.0 mph 54% 0.00 in 0.00 W/m2
04:17 69.1 °F 51.8 °F 29.87 in ESE 9.0 mph 9.0 mph 54% 0.00 in 0.00 W/m2
04:22 69.0 °F 51.7 °F 29.87 in ESE 6.0 mph 8.0 mph 54% 0.00 in 0.00 W/m2
04:27 69.0 °F 51.7 °F 29.87 in Calm   9.0 mph 54% 0.00 in 0.00 W/m2
04:32 69.0 °F 51.7 °F 29.87 in ESE 8.0 mph 9.0 mph 54% 0.00 in 0.00 W/m2
04:37 68.9 °F 51.6 °F 29.87 in East 5.0 mph 11.0 mph 54% 0.00 in 0.00 W/m2
04:42 68.9 °F 51.6 °F 29.87 in East 7.0 mph 9.0 mph 54% 0.00 in 0.00 W/m2
04:47 68.8 °F 51.5 °F 29.87 in East 6.0 mph 7.0 mph 54% 0.00 in 0.00 W/m2
04:52 68.8 °F 52.0 °F 29.87 in Calm   7.0 mph 55% 0.00 in 0.00 W/m2
04:58 68.7 °F 51.4 °F 29.87 in East 1.0 mph 8.0 mph 54% 0.00 in 0.00 W/m2
05:03 68.7 °F 51.9 °F 29.87 in Calm   1.0 mph 55% 0.00 in 0.00 W/m2
05:08 68.7 °F 51.9 °F 29.87 in East 6.0 mph 6.0 mph 55% 0.00 in 0.00 W/m2
05:13 68.7 °F 51.9 °F 29.87 in East 4.0 mph 8.0 mph 55% 0.00 in 0.00 W/m2
05:18 68.6 °F 51.8 °F 29.87 in East 5.0 mph 8.0 mph 55% 0.00 in 0.00 W/m2
05:23 68.6 °F 51.8 °F 29.87 in Calm   9.0 mph 55% 0.00 in 0.00 W/m2
05:28 68.5 °F 51.7 °F 29.87 in Calm   6.0 mph 55% 0.00 in 0.00 W/m2
05:33 68.5 °F 51.7 °F 29.87 in East 2.0 mph 7.0 mph 55% 0.00 in 0.00 W/m2
05:38 68.4 °F 51.6 °F 29.87 in East 6.0 mph 9.0 mph 55% 0.00 in 0.00 W/m2
05:43 68.4 °F 51.6 °F 29.87 in East 6.0 mph 7.0 mph 55% 0.00 in 0.00 W/m2
05:48 68.3 °F 51.5 °F 29.87 in East 5.0 mph 9.0 mph 55% 0.00 in 0.00 W/m2
05:53 68.3 °F 51.5 °F 29.87 in East 2.0 mph 11.0 mph 55% 0.00 in 0.00 W/m2
05:58 68.3 °F 51.5 °F 29.87 in East 7.0 mph 9.0 mph 55% 0.00 in 0.00 W/m2
06:03 68.2 °F 51.4 °F 29.87 in Calm   11.0 mph 55% 0.00 in 0.00 W/m2
06:08 68.2 °F 51.4 °F 29.88 in East 7.0 mph 8.0 mph 55% 0.00 in 0.00 W/m2
06:13 68.2 °F 51.4 °F 29.88 in East 1.0 mph 9.0 mph 55% 0.00 in 5.00 W/m2
06:18 68.1 °F 51.3 °F 29.88 in East 5.0 mph 9.0 mph 55% 0.00 in 7.00 W/m2
06:23 68.1 °F 51.3 °F 29.88 in East 5.0 mph 8.0 mph 55% 0.00 in 11.00 W/m2
06:28 68.1 °F 51.3 °F 29.88 in East 1.0 mph 7.0 mph 55% 0.00 in 14.00 W/m2
06:33 68.1 °F 51.8 °F 29.88 in Calm   8.0 mph 56% 0.00 in 18.00 W/m2
06:38 68.1 °F 51.8 °F 29.88 in East 1.0 mph 9.0 mph 56% 0.00 in 21.00 W/m2
06:43 68.1 °F 51.8 °F 29.88 in Calm   7.0 mph 56% 0.00 in 28.00 W/m2
06:48 68.1 °F 51.8 °F 29.88 in Calm   6.0 mph 56% 0.00 in 39.00 W/m2
06:53 68.1 °F 52.3 °F 29.88 in Calm   12.0 mph 57% 0.00 in 49.00 W/m2
06:58 68.1 °F 52.3 °F 29.88 in Calm   9.0 mph 57% 0.00 in 62.00 W/m2
06:59 68.1 °F 52.3 °F 29.88 in Calm   9.0 mph 57% 0.00 in 63.00 W/m2
07:04 68.0 °F 52.2 °F 29.88 in East 8.0 mph 12.0 mph 57% 0.00 in 77.00 W/m2
07:09 68.0 °F 52.7 °F 29.88 in Calm   11.0 mph 58% 0.00 in 91.00 W/m2
07:15 68.0 °F 52.7 °F 29.88 in Calm   11.0 mph 58% 0.00 in 109.00 W/m2
07:20 68.0 °F 52.7 °F 29.88 in ESE 6.0 mph 9.0 mph 58% 0.00 in 125.00 W/m2
07:25 68.0 °F 52.7 °F 29.89 in ESE 6.0 mph 11.0 mph 58% 0.00 in 139.00 W/m2
07:30 68.1 °F 53.2 °F 29.89 in East 4.0 mph 11.0 mph 59% 0.00 in 158.00 W/m2
07:35 68.1 °F 53.2 °F 29.89 in Calm   9.0 mph 59% 0.00 in 176.00 W/m2
07:40 68.2 °F 53.3 °F 29.89 in Calm   9.0 mph 59% 0.00 in 193.00 W/m2
07:45 68.2 °F 53.8 °F 29.89 in Calm   9.0 mph 60% 0.00 in 216.00 W/m2
07:50 68.3 °F 53.9 °F 29.89 in Calm   8.0 mph 60% 0.00 in 236.00 W/m2
07:55 68.4 °F 54.0 °F 29.89 in Calm   8.0 mph 60% 0.00 in 253.00 W/m2
08:00 68.5 °F 54.1 °F 29.89 in Calm   9.0 mph 60% 0.00 in 272.00 W/m2
08:05 68.5 °F 54.5 °F 29.89 in Calm   9.0 mph 61% 0.00 in 287.00 W/m2
08:10 68.6 °F 54.6 °F 29.89 in Calm   9.0 mph 61% 0.00 in 301.00 W/m2
08:15 68.7 °F 55.2 °F 29.89 in Calm   11.0 mph 62% 0.00 in 320.00 W/m2
08:20 68.8 °F 55.3 °F 29.89 in ESE 2.0 mph 8.0 mph 62% 0.00 in 338.00 W/m2
08:25 68.9 °F 55.4 °F 29.90 in ESE 1.0 mph 8.0 mph 62% 0.00 in 353.00 W/m2
08:30 69.0 °F 55.5 °F 29.90 in ESE 5.0 mph 11.0 mph 62% 0.00 in 373.00 W/m2
08:35 69.2 °F 55.6 °F 29.90 in Calm   8.0 mph 62% 0.00 in 388.00 W/m2
08:40 69.4 °F 55.8 °F 29.89 in Calm   9.0 mph 62% 0.00 in 406.00 W/m2
08:45 69.5 °F 55.9 °F 29.89 in Calm   8.0 mph 62% 0.00 in 422.00 W/m2
08:50 69.8 °F 56.2 °F 29.90 in ESE 1.0 mph 8.0 mph 62% 0.00 in 436.00 W/m2
08:55 70.0 °F 56.0 °F 29.89 in Calm   4.0 mph 61% 0.00 in 452.00 W/m2
09:00 70.3 °F 56.7 °F 29.90 in ESE 6.0 mph 7.0 mph 62% 0.00 in 466.00 W/m2
09:05 70.7 °F 57.1 °F 29.90 in Calm   7.0 mph 62% 0.00 in 482.00 W/m2
09:10 71.0 °F 57.3 °F 29.90 in ESE 1.0 mph 5.0 mph 62% 0.00 in 499.00 W/m2
09:15 71.3 °F 57.2 °F 29.90 in Calm   1.0 mph 61% 0.00 in 517.00 W/m2
09:20 71.5 °F 56.4 °F 29.90 in Calm   5.0 mph 59% 0.00 in 531.00 W/m2
09:25 71.9 °F 56.8 °F 29.90 in Calm   4.0 mph 59% 0.00 in 545.00 W/m2
09:30 72.2 °F 56.6 °F 29.90 in Calm   1.0 mph 58% 0.00 in 555.00 W/m2
09:35 72.6 °F 56.5 °F 29.90 in ESE 1.0 mph 5.0 mph 57% 0.00 in 571.00 W/m2
09:40 72.9 °F 54.8 °F 29.90 in ESE 1.0 mph 5.0 mph 53% 0.00 in 582.00 W/m2
09:45 73.3 °F 56.2 °F 29.90 in ESE 5.0 mph 5.0 mph 55% 0.00 in 594.00 W/m2
09:50 73.7 °F 55.5 °F 29.91 in Calm   4.0 mph 53% 0.00 in 608.00 W/m2
09:55 73.9 °F 54.1 °F 29.91 in Calm   5.0 mph 50% 0.00 in 622.00 W/m2
10:00 74.2 °F 53.8 °F 29.91 in ESE 4.0 mph 7.0 mph 49% 0.00 in 642.00 W/m2
10:05 74.7 °F 53.7 °F 29.91 in Calm   7.0 mph 48% 0.00 in 652.00 W/m2
10:10 75.3 °F 53.1 °F 29.91 in Calm   6.0 mph 46% 0.00 in 670.00 W/m2
10:15 75.7 °F 54.6 °F 29.91 in Calm   5.0 mph 48% 0.00 in 682.00 W/m2
10:20 76.0 °F 56.0 °F 29.91 in ESE 2.0 mph 6.0 mph 50% 0.00 in 693.00 W/m2
10:25 76.4 °F 54.7 °F 29.91 in Calm   6.0 mph 47% 0.00 in 707.00 W/m2
10:30 76.8 °F 54.5 °F 29.91 in Calm   8.0 mph 46% 0.00 in 717.00 W/m2
10:35 77.1 °F 54.8 °F 29.91 in Calm   5.0 mph 46% 0.00 in 726.00 W/m2
10:40 77.4 °F 55.0 °F 29.91 in Calm   4.0 mph 46% 0.00 in 742.00 W/m2
10:45 77.7 °F 53.5 °F 29.91 in Calm   7.0 mph 43% 0.00 in 752.00 W/m2
10:50 78.3 °F 54.0 °F 29.91 in Calm   5.0 mph 43% 0.00 in 759.00 W/m2
10:56 78.6 °F 53.0 °F 29.91 in Calm   7.0 mph 41% 0.00 in 772.00 W/m2
11:01 79.0 °F 53.3 °F 29.91 in Calm   5.0 mph 41% 0.00 in 780.00 W/m2
11:06 79.2 °F 54.2 °F 29.91 in SE 5.0 mph 8.0 mph 42% 0.00 in 793.00 W/m2
11:11 79.5 °F 51.7 °F 29.91 in Calm   7.0 mph 38% 0.00 in 802.00 W/m2
11:16 80.0 °F 53.5 °F 29.91 in SSE 1.0 mph 7.0 mph 40% 0.00 in 807.00 W/m2
11:21 80.3 °F 55.1 °F 29.91 in Calm   8.0 mph 42% 0.00 in 814.00 W/m2
11:26 80.6 °F 55.4 °F 29.91 in SSE 1.0 mph 10.0 mph 42% 0.00 in 823.00 W/m2
11:31 81.0 °F 57.1 °F 29.91 in South 4.0 mph 7.0 mph 44% 0.00 in 826.00 W/m2
11:36 81.3 °F 56.7 °F 29.91 in Calm   6.0 mph 43% 0.00 in 837.00 W/m2
11:41 81.7 °F 56.4 °F 29.91 in South 1.0 mph 7.0 mph 42% 0.00 in 842.00 W/m2
11:46 82.1 °F 56.1 °F 29.91 in Calm   7.0 mph 41% 0.00 in 847.00 W/m2
11:51 82.4 °F 56.4 °F 29.91 in SW 4.0 mph 8.0 mph 41% 0.00 in 851.00 W/m2
11:56 82.7 °F 57.3 °F 29.91 in Calm   7.0 mph 42% 0.00 in 858.00 W/m2
12:01 82.9 °F 56.1 °F 29.91 in Calm   8.0 mph 40% 0.00 in 863.00 W/m2
12:06 83.2 °F 56.4 °F 29.91 in WSW 8.0 mph 8.0 mph 40% 0.00 in 870.00 W/m2
12:11 83.2 °F 57.1 °F 29.91 in WSW 6.0 mph 10.0 mph 41% 0.00 in 874.00 W/m2
12:16 83.6 °F 56.8 °F 29.91 in Calm   6.0 mph 40% 0.00 in 879.00 W/m2
12:21 83.8 °F 57.6 °F 29.91 in West 4.0 mph 8.0 mph 41% 0.00 in 882.00 W/m2
12:26 84.1 °F 57.2 °F 29.91 in WSW 8.0 mph 10.0 mph 40% 0.00 in 888.00 W/m2
12:31 84.6 °F 59.0 °F 29.91 in Calm   8.0 mph 42% 0.00 in 891.00 W/m2
12:36 85.0 °F 56.6 °F 29.90 in WSW 4.0 mph 7.0 mph 38% 0.00 in 896.00 W/m2
12:41 85.1 °F 57.4 °F 29.90 in Calm     39% 0.00 in 898.00 W/m2
12:46 85.4 °F 56.2 °F 29.90 in WSW 5.0 mph 8.0 mph 37% 0.00 in 902.00 W/m2
12:51 86.0 °F 56.7 °F 29.90 in SW 8.0 mph 8.0 mph 37% 0.00 in 902.00 W/m2
12:56 86.4 °F 57.1 °F 29.90 in SW 7.0 mph 7.0 mph 37% 0.00 in 905.00 W/m2
13:01 86.9 °F 56.0 °F 29.90 in Calm   3.0 mph 35% 0.00 in 900.00 W/m2
13:06 86.9 °F 57.5 °F 29.91 in SW 1.0 mph 4.0 mph 37% 0.00 in 902.00 W/m2
13:11 87.1 °F 57.7 °F 29.91 in SSW 4.0 mph 5.0 mph 37% 0.00 in 907.00 W/m2
13:16 87.3 °F 56.3 °F 29.91 in SW 2.0 mph 3.0 mph 35% 0.00 in 898.00 W/m2
13:21 86.8 °F 57.4 °F 29.91 in SW 7.0 mph 7.0 mph 37% 0.00 in 900.00 W/m2
13:26 86.1 °F 56.8 °F 29.91 in WSW 4.0 mph 4.0 mph 37% 0.00 in 893.00 W/m2
13:31 85.7 °F 56.5 °F 29.90 in WSW 6.0 mph 7.0 mph 37% 0.00 in 886.00 W/m2
13:36 85.7 °F 57.2 °F 29.90 in WSW 7.0 mph 10.0 mph 38% 0.00 in 886.00 W/m2
13:41 85.8 °F 56.5 °F 29.90 in Calm     37% 0.00 in 879.00 W/m2
13:46 86.2 °F 57.6 °F 29.90 in SSW 4.0 mph 4.0 mph 38% 0.00 in 882.00 W/m2
13:51 86.4 °F 57.1 °F 29.90 in SSW 8.0 mph 10.0 mph 37% 0.00 in 874.00 W/m2
13:56 86.8 °F 57.4 °F 29.91 in SW 7.0 mph 9.0 mph 37% 0.00 in 874.00 W/m2
14:01 86.9 °F 57.5 °F 29.91 in Calm   1.0 mph 37% 0.00 in 865.00 W/m2
14:06 86.5 °F 56.4 °F 29.91 in WSW 1.0 mph 8.0 mph 36% 0.00 in 865.00 W/m2
14:11 86.4 °F 56.3 °F 29.91 in West 5.0 mph 8.0 mph 36% 0.00 in 858.00 W/m2
14:16 86.2 °F 56.1 °F 29.90 in Calm   3.0 mph 36% 0.00 in 853.00 W/m2
14:21 86.2 °F 55.4 °F 29.91 in SW 5.0 mph 6.0 mph 35% 0.00 in 847.00 W/m2
14:26 86.5 °F 56.4 °F 29.91 in WSW 4.0 mph 8.0 mph 36% 0.00 in 844.00 W/m2
14:31 86.4 °F 57.1 °F 29.90 in SSW 6.0 mph 6.0 mph 37% 0.00 in 835.00 W/m2
14:36 86.6 °F 57.2 °F 29.90 in Calm   1.0 mph 37% 0.00 in 830.00 W/m2
14:41 86.8 °F 57.4 °F 29.90 in Calm   1.0 mph 37% 0.00 in 824.00 W/m2
14:46 86.6 °F 57.2 °F 29.90 in SW 2.0 mph 5.0 mph 37% 0.00 in 812.00 W/m2
14:48 86.6 °F 57.2 °F 29.90 in SW 6.0 mph 6.0 mph 37% 0.00 in 810.00 W/m2
14:53 86.6 °F 57.2 °F 29.90 in SSW 5.0 mph 12.0 mph 37% 0.00 in 803.00 W/m2
14:58 86.7 °F 57.3 °F 29.89 in WSW 5.0 mph 5.0 mph 37% 0.00 in 793.00 W/m2
15:03 86.7 °F 55.8 °F 29.89 in Calm   9.0 mph 35% 0.00 in 786.00 W/m2
15:08 86.8 °F 57.4 °F 29.89 in SSW 2.0 mph 6.0 mph 37% 0.00 in 779.00 W/m2
15:13 86.8 °F 56.7 °F 29.89 in Calm   5.0 mph 36% 0.00 in 758.00 W/m2
15:18 86.8 °F 56.7 °F 29.89 in SW 5.0 mph 7.0 mph 36% 0.00 in 772.00 W/m2
15:23 86.6 °F 56.5 °F 29.89 in WSW 5.0 mph 7.0 mph 36% 0.00 in 752.00 W/m2
15:28 86.6 °F 55.7 °F 29.89 in SW 1.0 mph 3.0 mph 35% 0.00 in 735.00 W/m2
15:33 86.6 °F 55.7 °F 29.89 in WSW 7.0 mph 7.0 mph 35% 0.00 in 728.00 W/m2
15:35 86.4 °F 54.7 °F 29.88 in Calm   8.0 mph 34% 0.00 in 712.00 W/m2
15:40 86.1 °F 54.5 °F 29.88 in Calm   6.0 mph 34% 0.00 in 719.00 W/m2
15:45 86.1 °F 54.5 °F 29.88 in SW 2.0 mph 11.0 mph 34% 0.00 in 705.00 W/m2
15:50 86.1 °F 54.5 °F 29.88 in SW 1.0 mph 10.0 mph 34% 0.00 in 677.00 W/m2
15:55 86.1 °F 55.3 °F 29.88 in Calm   8.0 mph 35% 0.00 in 682.00 W/m2
16:00 86.1 °F 54.5 °F 29.88 in SW 8.0 mph 10.0 mph 34% 0.00 in 664.00 W/m2
16:05 86.0 °F 54.4 °F 29.88 in Calm   6.0 mph 34% 0.00 in 654.00 W/m2
16:11 86.0 °F 55.2 °F 29.88 in WSW 5.0 mph 12.0 mph 35% 0.00 in 649.00 W/m2
16:16 85.9 °F 55.1 °F 29.88 in West 11.0 mph 11.0 mph 35% 0.00 in 635.00 W/m2
16:21 85.6 °F 52.4 °F 29.88 in WSW 3.0 mph 11.0 mph 32% 0.00 in 608.00 W/m2
16:26 85.4 °F 53.0 °F 29.88 in Calm   5.0 mph 33% 0.00 in 610.00 W/m2
16:31 85.3 °F 52.1 °F 29.88 in WSW 4.0 mph 12.0 mph 32% 0.00 in 584.00 W/m2
16:36 85.2 °F 52.9 °F 29.88 in Calm   9.0 mph 33% 0.00 in 585.00 W/m2
16:41 85.3 °F 53.0 °F 29.88 in Calm   6.0 mph 33% 0.00 in 554.00 W/m2
16:46 85.2 °F 54.5 °F 29.88 in WSW 2.0 mph 10.0 mph 35% 0.00 in 557.00 W/m2
16:51 85.2 °F 54.5 °F 29.88 in Calm   8.0 mph 35% 0.00 in 531.00 W/m2
16:56 85.1 °F 52.8 °F 29.88 in Calm   4.0 mph 33% 0.00 in 515.00 W/m2
17:01 85.0 °F 54.3 °F 29.88 in WSW 7.0 mph 9.0 mph 35% 0.00 in 504.00 W/m2
17:06 85.0 °F 54.3 °F 29.87 in Calm   9.0 mph 35% 0.00 in 482.00 W/m2
17:11 84.9 °F 54.2 °F 29.87 in Calm   4.0 mph 35% 0.00 in 471.00 W/m2
17:16 84.8 °F 53.3 °F 29.87 in Calm   6.0 mph 34% 0.00 in 461.00 W/m2
17:21 84.8 °F 54.9 °F 29.87 in WSW 5.0 mph 9.0 mph 36% 0.00 in 445.00 W/m2
17:26 84.8 °F 54.1 °F 29.87 in Calm   8.0 mph 35% 0.00 in 429.00 W/m2
17:31 84.7 °F 54.0 °F 29.87 in Calm   6.0 mph 35% 0.00 in 417.00 W/m2
17:36 84.6 °F 55.5 °F 29.87 in WSW 8.0 mph 8.0 mph 37% 0.00 in 390.00 W/m2
17:41 84.5 °F 53.9 °F 29.87 in Calm   8.0 mph 35% 0.00 in 380.00 W/m2
17:46 84.5 °F 55.4 °F 29.87 in SW 1.0 mph 8.0 mph 37% 0.00 in 366.00 W/m2
17:51 84.3 °F 52.9 °F 29.87 in Calm   9.0 mph 34% 0.00 in 343.00 W/m2
17:56 84.2 °F 53.6 °F 29.87 in WSW 5.0 mph 6.0 mph 35% 0.00 in 332.00 W/m2
18:01 84.2 °F 53.6 °F 29.87 in Calm     35% 0.00 in 318.00 W/m2
18:06 84.1 °F 55.0 °F 29.87 in Calm     37% 0.00 in 302.00 W/m2
18:11 84.1 °F 54.3 °F 29.87 in Calm   2.0 mph 36% 0.00 in 287.00 W/m2
18:16 84.0 °F 54.2 °F 29.87 in Calm     36% 0.00 in 269.00 W/m2
18:21 83.9 °F 54.9 °F 29.87 in Calm     37% 0.00 in 250.00 W/m2
18:26 83.6 °F 54.6 °F 29.87 in SW 2.0 mph 3.0 mph 37% 0.00 in 234.00 W/m2
18:31 83.4 °F 55.2 °F 29.88 in Calm     38% 0.00 in 218.00 W/m2
18:36 83.2 °F 55.7 °F 29.87 in WSW 2.0 mph 3.0 mph 39% 0.00 in 199.00 W/m2
18:41 83.1 °F 56.3 °F 29.87 in Calm   1.0 mph 40% 0.00 in 185.00 W/m2
18:46 82.9 °F 56.8 °F 29.87 in WSW 3.0 mph 6.0 mph 41% 0.00 in 165.00 W/m2
18:51 82.7 °F 56.6 °F 29.87 in Calm     41% 0.00 in 151.00 W/m2
18:56 82.3 °F 55.6 °F 29.87 in Calm     40% 0.00 in 132.00 W/m2
19:01 82.0 °F 56.7 °F 29.87 in Calm     42% 0.00 in 113.00 W/m2
19:06 81.6 °F 56.3 °F 29.87 in Calm   1.0 mph 42% 0.00 in 95.00 W/m2
19:11 81.1 °F 56.5 °F 29.87 in WSW 2.0 mph 2.0 mph 43% 0.00 in 79.00 W/m2
19:16 80.6 °F 56.7 °F 29.87 in Calm     44% 0.00 in 69.00 W/m2
19:21 80.0 °F 56.8 °F 29.87 in Calm     45% 0.00 in 54.00 W/m2
19:26 79.5 °F 56.3 °F 29.88 in Calm     45% 0.00 in 42.00 W/m2
19:31 79.2 °F 56.7 °F 29.87 in Calm     46% 0.00 in 33.00 W/m2
19:36 78.8 °F 56.3 °F 29.87 in Calm     46% 0.00 in 25.00 W/m2
19:41 78.4 °F 56.5 °F 29.88 in Calm     47% 0.00 in 19.00 W/m2
19:46 77.9 °F 56.1 °F 29.88 in Calm     47% 0.00 in 16.00 W/m2
19:51 77.5 °F 56.3 °F 29.88 in Calm     48% 0.00 in 12.00 W/m2
19:56 76.9 °F 55.7 °F 29.88 in Calm     48% 0.00 in 11.00 W/m2
20:01 76.4 °F 55.8 °F 29.88 in Calm     49% 0.00 in 7.00 W/m2
20:02 76.3 °F 55.8 °F 29.88 in Calm     49% 0.00 in 5.00 W/m2
20:07 75.9 °F 55.4 °F 29.88 in Calm     49% 0.00 in 0.00 W/m2
20:13 75.5 °F 55.0 °F 29.87 in Calm   1.0 mph 49% 0.00 in 0.00 W/m2
20:18 75.2 °F 55.3 °F 29.87 in Calm   1.0 mph 50% 0.00 in 0.00 W/m2
20:19 75.1 °F 55.2 °F 29.87 in Calm   1.0 mph 50% 0.00 in 0.00 W/m2
20:22 75.0 °F 55.1 °F 29.87 in Calm     50% 0.00 in 0.00 W/m2
20:27 74.7 °F 54.8 °F 29.87 in Calm     50% 0.00 in 0.00 W/m2
20:32 74.5 °F 54.7 °F 29.87 in Calm   1.0 mph 50% 0.00 in 0.00 W/m2
20:37 74.4 °F 54.6 °F 29.87 in Calm     50% 0.00 in 0.00 W/m2
20:42 74.2 °F 54.4 °F 29.88 in WSW 1.0 mph 1.0 mph 50% 0.00 in 0.00 W/m2
20:47 74.0 °F 54.2 °F 29.88 in Calm     50% 0.00 in 0.00 W/m2
20:48 74.0 °F 54.2 °F 29.87 in Calm     50% 0.00 in 0.00 W/m2
20:53 73.9 °F 54.1 °F 29.88 in Calm   1.0 mph 50% 0.00 in 0.00 W/m2
20:58 73.8 °F 54.6 °F 29.88 in Calm   1.0 mph 51% 0.00 in 0.00 W/m2
21:03 73.7 °F 54.5 °F 29.88 in Calm   1.0 mph 51% 0.00 in 0.00 W/m2
21:06 73.6 °F 54.4 °F 29.88 in Calm     51% 0.00 in 0.00 W/m2
21:11 73.6 °F 54.4 °F 29.88 in Calm     51% 0.00 in 0.00 W/m2
21:16 73.5 °F 54.3 °F 29.88 in Calm     51% 0.00 in 0.00 W/m2
21:21 73.4 °F 54.7 °F 29.88 in Calm   3.0 mph 52% 0.00 in 0.00 W/m2
21:26 73.3 °F 54.6 °F 29.88 in Calm     52% 0.00 in 0.00 W/m2
21:32 73.3 °F 54.6 °F 29.88 in Calm     52% 0.00 in 0.00 W/m2
21:37 73.2 °F 55.1 °F 29.88 in Calm     53% 0.00 in 0.00 W/m2
21:42 73.0 °F 54.9 °F 29.88 in Calm     53% 0.00 in 0.00 W/m2
21:47 72.9 °F 55.3 °F 29.89 in Calm     54% 0.00 in 0.00 W/m2
21:52 72.8 °F 55.2 °F 29.89 in Calm     54% 0.00 in 0.00 W/m2
21:57 72.7 °F 55.1 °F 29.89 in Calm     54% 0.00 in 0.00 W/m2
22:02 72.5 °F 55.4 °F 29.89 in Calm     55% 0.00 in 0.00 W/m2
22:07 72.4 °F 55.3 °F 29.89 in Calm     55% 0.00 in 0.00 W/m2
22:12 72.2 °F 55.7 °F 29.89 in Calm   1.0 mph 56% 0.00 in 0.00 W/m2
22:17 72.0 °F 55.5 °F 29.89 in Calm   1.0 mph 56% 0.00 in 0.00 W/m2
22:22 71.9 °F 55.4 °F 29.89 in Calm     56% 0.00 in 0.00 W/m2
22:27 71.7 °F 55.2 °F 29.89 in Calm   1.0 mph 56% 0.00 in 0.00 W/m2
22:32 71.6 °F 55.1 °F 29.89 in Calm   1.0 mph 56% 0.00 in 0.00 W/m2
22:37 71.4 °F 54.4 °F 29.90 in Calm     55% 0.00 in 0.00 W/m2
22:42 71.2 °F 54.2 °F 29.89 in Calm     55% 0.00 in 0.00 W/m2
22:52 71.0 °F 54.5 °F 29.89 in Calm     56% 0.00 in 0.00 W/m2
22:57 70.8 °F 54.3 °F 29.89 in Calm     56% 0.00 in 0.00 W/m2
23:02 70.8 °F 54.3 °F 29.89 in Calm     56% 0.00 in 0.00 W/m2
23:07 70.7 °F 54.2 °F 29.89 in Calm   1.0 mph 56% 0.00 in 0.00 W/m2
23:12 70.7 °F 54.2 °F 29.89 in Calm   3.0 mph 56% 0.00 in 0.00 W/m2
23:17 70.6 °F 54.2 °F 29.89 in Calm   4.0 mph 56% 0.00 in 0.00 W/m2
23:22 70.6 °F 54.2 °F 29.89 in Calm   5.0 mph 56% 0.00 in 0.00 W/m2
23:27 70.5 °F 54.1 °F 29.89 in Calm   6.0 mph 56% 0.00 in 0.00 W/m2
23:32 70.5 °F 53.6 °F 29.89 in Calm   1.0 mph 55% 0.00 in 0.00 W/m2
23:37 70.5 °F 53.6 °F 29.89 in Calm   1.0 mph 55% 0.00 in 0.00 W/m2
23:42 70.4 °F 53.5 °F 29.89 in SSW 4.0 mph 4.0 mph 55% 0.00 in 0.00 W/m2
23:47 70.4 °F 53.5 °F 29.89 in Calm   9.0 mph 55% 0.00 in 0.00 W/m2
23:52 70.4 °F 53.5 °F 29.89 in SSE 4.0 mph 7.0 mph 55% 0.00 in 0.00 W/m2
23:57 70.4 °F 53.0 °F 29.89 in Calm   5.0 mph 54% 0.00 in 0.00 W/m2
Foresthill Weather
 WU-history PHP script courtesy of   Juneau County Weather.
powered by Cumulus v1.9.3 (1059)
Ambient Weather VWS v14.00
Top Contact Website Map Copyright © 2007 - 2018 Foresthillweather.com Never base important decisions on this or any weather information obtained from the Internet